Current weather by "City, St" or "zip code"  
 
Advertise Here

Current Conditions: Phoenix, Phoenix Sky Harbor International Airport, AZ

Partly Cloudy


91.0 F

Last Updated on Jul 26 2021, 8:51 pm MST
Humidity: 42%
Wind Speed: SW 4.6 mph
Barometer 29.88 in
Dewpoint: 64.9 F
Visibility: 10.00 mi
Precip: --
Heat Index: 93 F
Wind Chill: NA
Current conditions at:

Phoenix, Phoenix Sky Harbor International Airport, AZ (KPHX)

Lat: 33.427799 Lon: 112.003465

Local Radar Image active severe weather and emergency alerts image image weather storm and storm spotter reports image weather observation monitoring service image
Local
Radar
Active
Alerts
Storm Reports Obs
Monitoring

Sign-up For Email & Text Message Weather Alert Notification Services


Advertise Here

Observation History for Phoenix, Phoenix Sky Harbor International Airport, AZ


Time Wind
(mph)
Vis
(mi)
Weather Precip (in) Temperature (F) Relative
Humidity
Wind
Chill
(F)
Heat
Index
(F)
Pressure
Air Dwpt altimeter
(in)
sea level
(mb)
Rmks
8:51 pm MST SW 4.6 10.00 Partly Cloudy -- 91.0 64.9 42% NA 93 29.88 1010.0
7:51 pm MST S 4.6 10.00 Partly Cloudy -- 93.0 64.0 38% NA 95 29.86 1009.3
6:51 pm MST 4.6 10.00 Partly Cloudy -- 94.0 62.1 35% NA 95 29.85 1008.9
5:51 pm MST S 6.9 10.00 Partly Cloudy -- 96.0 62.1 32% NA 97 29.84 1008.6
4:51 pm MST SE 3.5 10.00 Partly Cloudy -- 96.0 60.1 30% NA 96 29.86 1009.1
3:51 pm MST 4.6 10.00 Partly Cloudy -- 95.0 59.0 30% NA 94 29.87 1009.6
2:51 pm MST 3.5 10.00 Partly Cloudy -- 96.0 62.1 32% NA 97 29.90 1010.5
1:51 pm MST E 6.9 10.00 Partly Cloudy -- 94.0 63.0 36% NA 95 29.93 1011.5
12:51 pm MST SE 6.9 10.00 Partly Cloudy -- 93.0 64.9 40% NA 95 29.95 1012.2
11:51 am MST E 8.1 10.00 Partly Cloudy -- 91.0 66.0 44% NA 94 29.96 1012.7
10:51 am MST 4.6 10.00 A Few Clouds -- 88.0 66.9 50% NA 91 29.97 1013.2
9:51 am MST E 3.5 10.00 Mostly Cloudy -- 84.0 66.9 57% NA 87 29.97 1013.2
8:51 am MST E 6.9 10.00 Mostly Cloudy -- 82.0 69.1 65% NA 85 29.98 1013.3
7:51 am MST E 6.9 10.00 Mostly Cloudy -- 79.0 69.1 72% NA NA 29.97 1013.3
6:51 am MST E 6.9 10.00 Partly Cloudy -- 77.0 69.1 77% NA NA 29.96 1012.9
5:51 am MST N 0.0 10.00 Partly Cloudy -- 75.0 70.0 84% NA NA 29.95 1012.7
4:51 am MST E 4.6 10.00 A Few Clouds -- 76.0 70.0 82% NA NA 29.94 1012.3
3:51 am MST E 3.5 10.00 Mostly Cloudy -- 76.0 70.0 82% NA NA 29.94 1012.1
2:51 am MST E 3.5 10.00 Partly Cloudy -- 76.0 70.0 82% NA NA 29.93 1011.8
1:51 am MST E 6.9 10.00 Partly Cloudy -- 76.0 70.0 82% NA NA 29.92 1011.6
12:51 am MST E 5.8 10.00 Mostly Cloudy -- 77.0 70.0 79% NA NA 29.93 1012.0
11:51 pm MST E 8.1 10.00 Mostly Cloudy -- 77.0 71.1 82% NA NA 29.94 1012.3
10:51 pm MST E 5.8 10.00 Partly Cloudy -- 78.0 71.1 79% NA NA 29.95 1012.5
9:51 pm MST E 8.1 10.00 Mostly Cloudy -- 78.0 71.1 79% NA NA 29.95 1012.6

Regional Weather Observation


Phoenix, Phoenix Sky Harbor International Airport, AZ (KPHX)

Partly Cloudy
91.0 F

Glendale, Glendale Municipal Airport, AZ (KGEU)

A Few Clouds
93.0 F

Luke Air Force Base / Phoenix, AZ (KLUF)

Fair
91.0 F

Goodyear Municipal, AZ (KGYR)

A Few Clouds
91.0 F

Scottsdale Airport, AZ (KSDL)

Fair
90.0 F

Buckeye Municipal Airport, AZ (KBXK)

NULL
88.0 F
Advertise Here

Advertise Here